LRIA Weather Reports


Display with metric or nautical units.
time (UTC)temp
F
wind
direction
speed
MPH
gust
MPH
rain 1hr
in
rain 24hr
in
rain mn
in
humidity
%
barometer
mb
20260508043323 52 110 10.0 0.0 0.00 0.00 0.00 82 1015.0
20260508041821 52 110 10.0 0.0 0.00 0.00 0.00 82 1015.0
20260508040324 52 110 10.0 0.0 0.00 0.00 0.00 82 1015.0
20260508034821 50 120 8.0 0.0 0.00 0.00 0.00 88 1015.0
20260508033323 50 120 8.0 0.0 0.00 0.00 0.00 88 1015.0
20260508031823 50 110 8.0 0.0 0.00 0.00 0.00 88 1014.0
20260508030324 50 110 8.0 0.0 0.00 0.00 0.00 88 1014.0
20260508024823 50 110 10.0 0.0 0.00 0.00 0.00 88 1014.0
20260508023324 50 110 10.0 0.0 0.00 0.00 0.00 88 1014.0
20260508021824 50 110 9.0 0.0 0.00 0.00 0.00 88 1014.0
20260508020323 50 110 9.0 0.0 0.00 0.00 0.00 88 1014.0
20260508014823 52 110 9.0 0.0 0.00 0.00 0.00 82 1014.0
20260508013323 52 110 9.0 0.0 0.00 0.00 0.00 82 1014.0
20260508011823 52 110 10.0 0.0 0.00 0.00 0.00 82 1014.0
20260508010323 52 110 10.0 0.0 0.00 0.00 0.00 82 1014.0
20260508004823 52 110 10.0 0.0 0.00 0.00 0.00 82 1014.0
20260508003323 52 110 10.0 0.0 0.00 0.00 0.00 82 1014.0
20260508001822 52 110 10.0 0.0 0.00 0.00 0.00 82 1014.0
20260508000323 52 110 10.0 0.0 0.00 0.00 0.00 82 1014.0
20260507234824 54 110 11.0 0.0 0.00 0.00 0.00 77 1014.0
20260507233323 54 110 11.0 0.0 0.00 0.00 0.00 77 1014.0
20260507231823 54 110 11.0 0.0 0.00 0.00 0.00 77 1014.0
20260507230323 54 110 11.0 0.0 0.00 0.00 0.00 77 1014.0
20260507224823 54 110 13.0 0.0 0.00 0.00 0.00 77 1014.0
20260507223441 54 110 13.0 0.0 0.00 0.00 0.00 77 1014.0
20260507221823 55 120 11.0 0.0 0.00 0.00 0.00 72 1014.0
20260507220323 55 120 11.0 0.0 0.00 0.00 0.00 72 1014.0
20260507214823 55 120 13.0 0.0 0.00 0.00 0.00 72 1014.0
20260507213325 55 120 13.0 0.0 0.00 0.00 0.00 72 1014.0
20260507211823 57 120 13.0 0.0 0.00 0.00 0.00 67 1014.0
20260507210323 57 120 13.0 0.0 0.00 0.00 0.00 67 1014.0
20260507204823 57 120 13.0 0.0 0.00 0.00 0.00 67 1014.0
20260507203323 57 120 13.0 0.0 0.00 0.00 0.00 67 1014.0
20260507201823 61 120 13.0 0.0 0.00 0.00 0.00 63 1014.0
20260507200324 61 120 13.0 0.0 0.00 0.00 0.00 63 1014.0
20260507194829 61 130 16.0 0.0 0.00 0.00 0.00 63 1014.0
20260507193323 61 130 16.0 0.0 0.00 0.00 0.00 63 1014.0
20260507191823 63 120 15.0 0.0 0.00 0.00 0.00 59 1014.0
20260507190324 63 120 15.0 0.0 0.00 0.00 0.00 59 1014.0
20260507184825 64 110 14.0 0.0 0.00 0.00 0.00 56 1014.0
20260507183323 64 110 14.0 0.0 0.00 0.00 0.00 56 1014.0
20260507181823 66 140 13.0 0.0 0.00 0.00 0.00 56 1014.0
20260507180323 66 140 13.0 0.0 0.00 0.00 0.00 56 1014.0
20260507174823 68 140 13.0 0.0 0.00 0.00 0.00 53 1014.0
20260507173324 68 140 13.0 0.0 0.00 0.00 0.00 53 1014.0
20260507171824 70 150 13.0 0.0 0.00 0.00 0.00 50 1013.0
20260507170323 70 150 13.0 0.0 0.00 0.00 0.00 50 1013.0
20260507164824 70 150 14.0 0.0 0.00 0.00 0.00 46 1013.0
20260507163323 70 150 14.0 0.0 0.00 0.00 0.00 46 1013.0
20260507161823 72 150 16.0 0.0 0.00 0.00 0.00 44 1013.0
20260507160323 72 150 16.0 0.0 0.00 0.00 0.00 44 1013.0
20260507154823 73 150 17.0 0.0 0.00 0.00 0.00 41 1013.0
20260507153323 73 150 17.0 0.0 0.00 0.00 0.00 41 1013.0
20260507151823 73 140 17.0 0.0 0.00 0.00 0.00 38 1013.0
20260507150323 73 140 17.0 0.0 0.00 0.00 0.00 38 1013.0
20260507144823 73 150 16.0 0.0 0.00 0.00 0.00 41 1014.0
20260507143325 73 150 16.0 0.0 0.00 0.00 0.00 41 1014.0
20260507141823 75 150 17.0 0.0 0.00 0.00 0.00 34 1014.0
20260507140323 75 150 17.0 0.0 0.00 0.00 0.00 34 1014.0
20260507134824 75 150 16.0 0.0 0.00 0.00 0.00 34 1014.0
20260507133323 75 150 16.0 0.0 0.00 0.00 0.00 34 1014.0
20260507131820 75 150 17.0 0.0 0.00 0.00 0.00 31 1014.0
20260507130323 75 150 17.0 0.0 0.00 0.00 0.00 31 1014.0
20260507124823 75 150 15.0 0.0 0.00 0.00 0.00 34 1014.0
20260507123401 75 150 15.0 0.0 0.00 0.00 0.00 34 1014.0
20260507121823 75 140 17.0 0.0 0.00 0.00 0.00 34 1015.0
20260507120323 75 140 17.0 0.0 0.00 0.00 0.00 34 1015.0
20260507114823 75 160 14.0 0.0 0.00 0.00 0.00 31 1015.0
20260507113340 75 150 16.0 0.0 0.00 0.00 0.00 31 1015.0
20260507111823 75 150 16.0 0.0 0.00 0.00 0.00 31 1015.0
20260507110323 75 150 16.0 0.0 0.00 0.00 0.00 31 1015.0
20260507104822 75 160 13.0 0.0 0.00 0.00 0.00 31 1015.0
20260507103323 75 160 13.0 0.0 0.00 0.00 0.00 31 1015.0
20260507101823 73 160 14.0 0.0 0.00 0.00 0.00 31 1015.0
20260507100324 73 160 14.0 0.0 0.00 0.00 0.00 31 1015.0
20260507094823 72 170 10.0 0.0 0.00 0.00 0.00 31 1015.0
20260507093324 72 170 10.0 0.0 0.00 0.00 0.00 31 1015.0
20260507091824 73 150 14.0 0.0 0.00 0.00 0.00 31 1015.0
20260507090323 73 150 14.0 0.0 0.00 0.00 0.00 31 1015.0
20260507084823 72 150 11.0 0.0 0.00 0.00 0.00 33 1015.0
20260507083323 72 150 11.0 0.0 0.00 0.00 0.00 33 1015.0
20260507081823 72 160 10.0 0.0 0.00 0.00 0.00 33 1016.0
20260507080324 72 160 10.0 0.0 0.00 0.00 0.00 33 1016.0
20260507074824 70 150 11.0 0.0 0.00 0.00 0.00 35 1016.0
20260507073323 70 150 11.0 0.0 0.00 0.00 0.00 35 1016.0
20260507071823 66 130 10.0 0.0 0.00 0.00 0.00 46 1016.0
20260507070323 66 130 10.0 0.0 0.00 0.00 0.00 46 1016.0
20260507064823 63 120 11.0 0.0 0.00 0.00 0.00 52 1016.0
20260507063323 63 120 11.0 0.0 0.00 0.00 0.00 52 1016.0
20260507061832 61 100 13.0 0.0 0.00 0.00 0.00 55 1016.0
20260507060323 61 100 13.0 0.0 0.00 0.00 0.00 55 1016.0
20260507054823 59 110 13.0 0.0 0.00 0.00 0.00 59 1016.0
20260507053330 59 110 13.0 0.0 0.00 0.00 0.00 59 1016.0
20260507051823 55 110 13.0 0.0 0.00 0.00 0.00 63 1015.0
20260507050323 55 110 13.0 0.0 0.00 0.00 0.00 63 1015.0
20260507044820 54 110 11.0 0.0 0.00 0.00 0.00 67 1015.0